Date,TemperatureHighF,TemperatureAvgF,TemperatureLowF,DewpointHighF,DewpointAvgF,DewpointLowF,HumidityHigh,HumidityAvg,HumidityLow,PressureMaxIn,PressureMinIn,WindSpeedMaxMPH,WindSpeedAvgMPH,GustSpeedMaxMPH,PrecipitationSumIn
2013-1-1,74,60,49,60,54,47,96,82,60,30.22,30.00,5,1,15,0.00
2013-1-2,74,65,59,67,61,55,93,87,78,30.07,29.95,8,1,12,0.01
2013-1-3,61,56,49,60,54,48,95,94,90,30.25,30.05,5,1,8,0.12
2013-1-4,55,50,47,51,48,45,96,91,87,30.32,30.22,5,2,12,0.00
2013-1-5,61,52,43,54,47,38,90,82,73,30.35,30.25,4,1,9,0.00
2013-1-6,60,56,50,55,53,48,95,91,82,30.26,30.12,5,0,8,0.82
2013-1-7,62,54,46,54,49,42,94,85,75,30.29,30.17,5,1,11,0.00
2013-1-8,70,61,57,65,58,53,94,90,83,30.28,30.19,4,0,6,0.00
2013-1-9,74,66,61,70,63,60,96,93,85,30.34,30.23,3,0,7,0.00
2013-1-10,66,66,65,65,64,63,96,95,95,30.34,30.32,0,0,0,0.00
2013-1-13,77,68,63,64,62,60,93,84,63,30.14,30.09,0,0,0,0.00
2013-1-14,78,69,61,68,63,59,96,83,63,30.19,30.10,3,0,10,0.01
2013-1-15,78,70,62,68,64,60,96,84,67,30.15,30.04,2,0,7,0.00
2013-1-16,80,71,65,68,64,60,93,78,56,30.09,29.97,3,0,7,0.00
2013-1-17,74,60,43,66,54,35,94,81,59,30.14,29.90,13,3,18,0.01
2013-1-18,57,50,42,47,42,35,84,74,66,30.40,30.15,8,4,12,0.00
2013-1-19,62,54,46,55,49,41,92,84,76,30.37,30.20,5,2,8,0.00
2013-1-20,72,60,54,55,52,50,94,78,48,30.21,30.06,4,1,8,0.00
2013-1-21,67,58,50,51,49,43,92,72,52,30.12,30.02,5,1,11,0.00
2013-1-22,61,53,46,44,35,29,69,53,32,30.30,30.08,7,3,12,0.00
2013-1-23,62,50,40,41,34,28,73,56,38,30.42,30.27,6,1,11,0.00
2013-1-24,71,59,47,54,47,39,84,67,47,30.30,30.18,10,3,16,0.00
2013-1-25,72,62,54,58,52,48,92,72,43,30.32,30.15,5,1,6,0.00
2013-1-26,74,63,52,62,56,50,94,80,65,30.23,30.14,6,1,9,0.00
2013-1-27,67,62,59,59,56,54,90,83,68,30.37,30.21,4,1,15,0.00
2013-1-28,75,65,56,65,60,54,95,85,70,30.37,30.25,1,0,1,0.00
2013-1-29,78,67,59,68,63,58,96,88,70,30.26,30.09,0,0,2,0.00
2013-1-30,82,73,59,67,64,56,93,75,55,30.10,29.77,14,2,19,0.18
2013-1-31,58,52,46,55,37,28,91,60,33,30.25,29.88,10,5,20,0.05
2013-2-1,62,52,42,38,33,25,68,51,34,30.33,30.23,8,4,15,0.00
2013-2-2,63,49,36,44,33,22,84,55,34,30.35,30.15,5,2,9,0.00
2013-2-3,65,53,44,42,35,29,85,53,26,30.19,30.03,8,4,16,0.00
2013-2-4,63,54,42,47,42,37,91,67,44,30.13,30.04,4,0,6,0.00
2013-2-5,66,57,45,54,48,41,86,72,58,30.11,29.99,1,0,1,0.00
2013-2-6,68,61,57,60,55,51,91,83,72,30.15,30.04,0,0,0,0.01
2013-2-7,74,69,63,65,64,61,93,84,69,30.05,29.80,5,1,14,0.03
2013-2-8,68,61,56,65,56,52,92,82,67,30.09,29.82,9,4,14,0.00
2013-2-9,64,56,49,53,48,43,91,76,54,30.26,30.08,5,2,11,0.00
2013-2-10,72,63,52,60,56,50,94,79,65,30.30,30.16,3,0,8,0.00
2013-2-11,81,71,62,64,62,59,88,74,54,30.19,30.04,5,1,10,0.00
2013-2-12,81,71,64,68,65,61,94,81,57,30.07,29.85,4,1,12,0.00
2013-2-13,76,71,60,71,65,50,93,82,51,29.92,29.78,9,2,12,0.46
2013-2-14,60,53,48,56,49,44,92,87,79,30.08,29.91,6,2,9,0.15
2013-2-15,63,52,42,50,45,40,92,79,56,30.11,29.98,4,1,8,0.00
2013-2-16,57,48,40,47,42,25,93,79,54,30.14,29.91,14,4,20,0.04
2013-2-17,51,41,32,27,20,11,67,46,21,30.37,30.14,9,4,13,0.00
2013-2-18,62,47,32,46,36,25,93,68,42,30.42,30.23,2,0,4,0.00
2013-2-19,77,62,46,61,53,43,92,73,45,30.24,29.99,6,2,15,0.01
2013-2-20,67,56,46,57,40,28,91,58,30,30.18,30.06,6,2,12,0.00
2013-2-21,69,57,45,57,48,38,94,73,43,30.16,30.04,4,0,7,0.00
2013-2-22,80,70,61,67,64,57,95,83,62,30.08,29.98,4,0,10,0.00
2013-2-23,82,72,62,68,65,60,95,81,56,29.98,29.83,10,2,16,0.42
2013-2-24,74,65,57,64,58,47,95,81,43,30.00,29.84,3,0,5,0.15
2013-2-25,66,62,58,65,60,55,95,93,89,29.94,29.79,7,1,10,2.14
2013-2-26,78,69,61,69,62,55,96,81,45,29.82,29.65,9,3,12,0.37
2013-2-27,69,60,54,55,48,43,83,65,42,29.97,29.82,10,4,15,0.00
2013-2-28,69,58,49,47,43,34,85,58,38,29.98,29.84,10,5,15,0.00
2013-3-1,58,52,47,39,37,34,67,56,44,30.02,29.90,8,5,13,0.00
2013-3-2,52,45,38,38,33,29,86,63,42,30.04,29.93,13,6,23,0.00
2013-3-3,46,41,36,32,30,27,84,67,50,30.07,30.00,10,6,18,0.00
2013-3-13,69,59,48,43,36,31,73,46,26,30.19,30.03,10,5,19,0.00
2013-3-14,61,51,43,40,32,27,80,49,31,30.31,30.17,7,3,12,0.00
2013-3-15,72,56,41,51,40,31,84,58,31,30.29,30.11,3,0,6,0.00
2013-3-16,80,64,49,52,47,40,89,58,32,30.16,29.99,8,2,17,0.00
2013-3-17,76,65,51,56,49,43,88,58,34,30.13,29.98,5,1,11,0.00
2013-3-18,80,69,62,64,60,53,90,74,55,30.06,29.85,5,0,10,0.00
2013-3-19,79,69,61,64,60,57,92,73,48,30.02,29.88,12,2,14,0.08
2013-3-20,65,61,53,61,53,48,93,77,60,30.02,29.84,4,1,8,0.17
2013-3-21,66,54,44,52,37,27,94,57,23,29.96,29.85,8,3,15,0.01
2013-3-22,67,56,48,50,41,34,78,57,38,30.07,29.94,4,1,8,0.00
2013-3-23,67,61,56,64,58,50,96,90,77,30.01,29.78,4,0,6,1.95
2013-3-24,84,71,61,72,66,60,96,84,53,29.81,29.51,9,2,19,0.29
2013-3-25,69,59,49,61,38,26,86,49,24,30.03,29.61,13,7,19,0.00
2013-3-26,54,48,40,33,28,24,64,48,35,30.25,30.03,12,6,19,0.00
2013-3-27,60,48,38,37,31,28,72,55,34,30.31,30.21,8,4,15,0.00
2013-3-28,67,53,42,46,36,28,79,56,24,30.31,30.20,7,2,11,0.00
2013-3-29,73,58,45,50,43,36,89,62,27,30.34,30.19,5,1,8,0.00
2013-3-30,78,63,46,55,44,39,84,55,27,30.27,30.09,4,1,11,0.00
2013-3-31,80,68,56,57,52,44,78,58,42,30.14,29.96,4,1,15,0.00
2013-4-1,82,70,62,69,62,57,90,77,52,30.00,29.88,7,1,19,0.09
2013-4-2,77,67,57,62,54,48,93,67,39,30.11,29.97,4,1,7,0.01
2013-4-3,79,66,56,65,60,53,94,83,58,30.10,30.02,4,0,13,0.30
2013-4-4,77,70,64,70,65,63,95,86,71,30.06,29.84,4,1,11,0.14
2013-4-5,68,61,54,64,59,52,94,92,88,29.92,29.80,4,1,7,0.29
2013-4-11,86,76,70,74,70,68,93,84,62,29.99,29.80,4,0,8,0.30
2013-4-12,87,77,72,74,70,67,94,80,54,29.87,29.74,6,2,11,0.00
2013-4-13,81,72,63,68,57,48,88,62,42,30.01,29.87,6,1,8,0.00
2013-4-14,76,67,63,66,61,59,90,82,66,30.02,29.96,0,0,2,0.34
2013-4-15,85,74,65,69,66,63,94,75,55,30.12,29.98,5,2,8,0.00
2013-4-16,82,72,65,71,67,64,94,84,65,30.19,30.09,4,1,6,0.00
2013-4-17,77,71,64,70,66,62,95,86,74,30.18,30.09,4,1,7,0.00
2013-4-18,86,75,66,71,68,64,96,80,57,30.10,29.96,1,0,7,0.00
2013-4-19,88,78,65,73,70,62,92,78,54,30.00,29.86,9,1,13,0.10
2013-4-20,65,56,50,61,52,47,93,89,77,30.20,29.98,7,2,13,0.60
2013-4-21,71,63,56,62,58,52,91,84,75,30.20,30.11,5,2,8,0.04
2013-4-22,66,63,59,63,59,55,94,89,75,30.16,30.06,4,2,19,0.68
2013-4-23,70,63,56,60,57,55,94,81,65,30.17,30.07,4,1,8,0.01
2013-4-24,84,69,55,68,61,54,96,77,45,30.16,30.07,1,0,1,0.00
2013-4-25,85,74,61,70,64,58,94,74,49,30.20,30.10,6,1,7,0.00
2013-4-26,78,71,63,67,62,55,88,74,63,30.30,30.17,5,2,12,0.00
2013-4-27,83,72,63,66,62,58,92,73,45,30.26,30.15,3,0,9,0.00
2013-4-28,82,74,67,68,66,64,92,79,61,30.18,30.00,1,0,3,0.00
2013-4-29,82,72,65,69,65,63,93,80,60,30.02,29.91,7,0,10,0.34
2013-4-30,85,71,64,70,66,63,96,84,56,30.04,29.94,3,0,6,0.01
2013-5-1,75,70,67,69,66,62,93,87,81,30.07,29.97,6,2,11,0.00
2013-5-2,71,69,68,69,67,64,95,93,88,30.04,29.89,4,0,10,2.20
2013-5-3,70,68,66,67,65,63,95,91,79,29.90,29.83,5,2,9,1.49
2013-5-4,70,68,66,68,65,61,96,92,78,29.83,29.69,3,1,6,1.28
2013-5-5,77,68,59,68,57,50,96,72,40,29.88,29.71,9,2,17,0.01
2013-5-6,73,64,56,58,51,45,89,64,40,29.98,29.84,7,2,15,0.00
2013-5-7,78,67,56,61,56,52,87,69,46,30.02,29.90,6,2,11,0.00
2013-5-8,80,70,58,64,58,56,94,69,45,30.10,29.99,7,2,13,0.00
2013-5-9,85,73,63,68,63,60,94,73,49,30.13,30.05,4,1,8,0.00
2013-5-10,88,75,62,70,65,59,93,73,44,30.13,29.98,2,0,5,0.00
2013-5-11,88,75,67,72,67,64,93,79,52,30.05,29.92,12,1,15,0.41
2013-5-12,84,74,66,69,65,57,95,75,54,30.02,29.92,7,2,12,0.01
2013-5-13,77,70,63,59,48,40,70,48,28,30.15,29.99,7,2,14,0.00
2013-5-14,81,68,55,55,46,39,73,48,24,30.25,30.15,3,1,5,0.00
2013-5-15,86,71,58,63,57,54,87,65,36,30.23,30.07,4,0,5,0.00
2013-5-16,87,75,64,70,64,60,84,69,48,30.13,30.01,4,0,9,0.00
2013-5-17,87,76,65,70,66,57,90,72,39,30.11,30.04,2,0,4,0.00
2013-5-18,90,78,69,74,70,66,92,78,51,30.13,30.01,1,0,4,0.25
2013-5-19,87,76,69,77,71,66,94,84,69,30.10,29.99,6,0,10,0.20
2013-5-20,84,75,69,75,71,67,95,87,71,30.10,30.00,1,0,5,0.21
2013-5-21,84,75,70,74,71,67,95,88,67,30.05,29.94,1,0,2,0.21
2013-5-22,85,77,69,75,71,67,95,83,66,29.99,29.90,2,0,3,0.00
2013-5-23,90,80,70,74,70,67,94,74,48,29.97,29.88,6,1,10,0.05
2013-5-24,88,80,72,72,64,55,93,63,34,30.11,29.93,8,3,12,0.00
2013-5-25,81,75,69,65,58,55,81,58,43,30.25,30.09,4,2,9,0.00
2013-5-26,84,74,62,63,59,54,91,62,35,30.24,30.15,3,0,6,0.00
2013-5-27,87,75,63,68,64,60,91,70,50,30.21,30.12,1,0,4,0.00
2013-5-28,88,78,70,72,68,65,87,73,55,30.18,30.12,2,0,4,0.00
2013-5-29,88,80,72,76,72,69,90,80,62,30.16,30.09,2,0,3,0.00
2013-5-30,89,80,75,75,73,72,92,80,61,30.17,30.08,2,0,3,0.05
2013-5-31,88,80,73,74,72,71,93,79,62,30.15,30.08,2,0,3,0.01
2013-6-1,90,80,74,75,73,71,92,79,58,30.10,30.01,2,0,3,0.15
2013-6-2,89,80,74,78,75,72,94,85,70,30.06,29.87,1,0,2,0.12
2013-6-3,91,79,73,77,74,71,95,84,57,29.95,29.85,4,0,9,0.15
2013-6-4,87,79,73,77,74,71,94,85,67,30.02,29.92,7,0,9,0.00
2013-6-5,84,76,73,75,72,70,94,88,70,30.01,29.93,2,0,7,0.20
2013-6-6,77,74,72,76,73,70,96,95,92,29.94,29.53,6,0,9,1.86
2013-6-7,89,79,70,76,72,69,95,81,57,29.91,29.56,8,2,10,0.07
2013-6-8,92,81,73,79,73,71,95,79,55,30.08,29.91,3,0,7,0.00
2013-6-9,91,79,74,79,74,71,93,84,63,30.12,30.02,2,0,7,0.08
2013-6-10,90,82,75,77,75,73,94,81,63,30.10,29.99,2,0,5,0.00
2013-6-11,92,82,75,76,74,72,93,77,57,30.08,29.98,4,1,7,0.00
2013-6-12,96,85,74,77,74,71,94,71,45,30.06,29.95,4,1,8,0.00
2013-6-13,96,85,77,79,76,74,91,77,51,29.99,29.84,7,1,11,0.01
2013-6-14,92,80,72,78,75,70,94,85,63,29.93,29.78,7,2,12,1.73
2013-6-15,90,81,75,74,72,70,93,75,56,30.09,29.93,1,0,2,0.00
2013-6-16,90,82,74,75,73,70,89,75,59,30.13,30.03,2,0,5,0.00
2013-6-17,93,83,77,80,76,73,91,79,53,30.08,29.94,1,0,5,0.00
2013-6-18,94,83,74,75,72,71,92,72,49,30.03,29.90,6,2,10,0.00
2013-6-19,94,83,75,78,74,71,93,75,49,30.02,29.91,6,1,13,0.00
2013-6-20,88,79,73,77,74,70,92,84,64,30.09,29.97,5,1,9,0.53
2013-6-21,87,78,75,76,74,72,94,86,67,30.13,30.04,6,1,7,0.52
2013-6-22,85,78,74,76,74,72,95,89,73,30.13,30.07,3,0,3,0.04
2013-6-23,92,82,74,77,75,72,95,80,58,30.16,30.08,2,0,3,0.01
2013-6-24,91,82,75,80,75,73,94,80,58,30.20,30.08,3,0,4,0.02
2013-6-25,93,83,75,78,74,68,93,77,47,30.17,30.04,6,0,6,0.00
2013-6-26,92,80,75,77,74,71,92,83,56,30.09,29.99,10,0,10,0.22
2013-6-27,94,81,71,78,74,69,93,79,58,30.02,29.87,3,0,6,0.02
2013-6-28,91,80,77,77,74,72,91,82,61,29.93,29.78,13,2,15,0.00
2013-6-29,86,80,76,77,74,73,93,83,69,29.81,29.73,4,1,14,0.08
2013-6-30,90,79,75,77,75,72,93,86,62,29.85,29.76,8,1,10,0.14
2013-7-1,84,76,73,77,73,71,95,90,76,30.01,29.82,4,1,8,0.69
2013-7-2,87,76,73,78,74,72,95,91,73,30.10,29.98,4,0,9,0.16
2013-7-3,88,79,73,80,75,71,95,88,67,30.13,30.06,4,0,5,0.07
2013-7-4,90,81,73,79,75,70,94,84,67,30.17,30.08,4,0,7,0.17
2013-7-5,90,81,73,79,75,72,95,83,66,30.17,30.09,0,0,4,0.00
2013-7-6,92,82,77,78,76,74,92,82,62,30.14,30.06,2,0,3,0.00
2013-7-7,92,83,76,78,75,74,92,79,62,30.15,30.07,1,0,3,0.00
2013-7-8,93,83,75,78,75,73,94,80,59,30.18,30.09,1,0,4,0.00
2013-7-9,93,83,76,78,74,72,94,77,53,30.18,30.06,1,0,3,0.00
2013-7-10,93,83,75,76,74,71,93,76,49,30.10,29.95,1,0,5,0.00
2013-7-11,94,82,74,79,74,70,93,79,53,30.02,29.86,4,0,4,0.85
2013-7-12,88,78,74,77,74,72,95,89,68,29.93,29.88,7,0,12,0.07
2013-7-13,90,77,71,78,73,69,95,89,66,30.00,29.89,5,0,12,1.48
2013-7-14,87,78,72,77,74,70,96,87,71,30.12,29.98,0,0,0,0.01
2013-7-15,86,79,75,79,75,72,94,89,74,30.16,30.09,2,0,3,0.52
2013-7-16,89,82,76,79,76,74,94,84,69,30.20,30.14,2,0,4,0.09
2013-7-17,90,83,76,79,75,73,94,79,59,30.20,30.09,3,0,4,0.08
2013-7-18,90,82,75,77,75,72,94,80,58,30.13,30.04,0,0,0,0.00
2013-7-19,88,78,73,76,73,71,94,85,64,30.12,30.04,5,0,8,0.53
2013-7-20,88,77,73,78,73,70,93,88,72,30.09,30.01,7,0,9,0.18
2013-7-21,91,79,72,77,74,70,94,84,59,30.09,30.00,7,1,9,0.06
2013-7-22,91,79,75,77,75,72,94,88,60,30.12,30.01,8,1,14,0.72
2013-7-23,85,77,73,77,74,72,94,90,76,30.02,29.98,6,1,10,0.01
2013-8-13,95,87,81,78,74,70,89,65,45,30.02,29.88,2,0,6,0.00
2013-8-14,95,84,75,81,75,72,93,78,50,29.99,29.85,5,1,9,1.15
2013-8-15,94,82,75,79,75,73,95,83,59,30.00,29.90,2,0,5,0.01
2013-8-22,78,76,74,75,74,72,94,92,88,30.15,30.01,1,0,8,0.42
2013-8-23,89,79,75,80,76,74,95,91,72,30.04,29.98,1,0,4,0.25
2013-8-24,84,79,74,78,75,72,96,89,79,30.14,30.01,2,0,4,0.01
2013-8-25,84,78,75,78,74,72,94,88,79,30.19,30.11,5,2,11,0.27
2013-8-26,85,79,72,78,74,70,95,85,70,30.18,30.06,4,2,8,0.01
2013-8-27,89,81,74,76,72,69,93,77,55,30.10,30.00,3,0,6,0.00
2013-8-28,91,81,72,75,72,69,93,75,55,30.06,29.95,1,0,2,0.00
2013-8-29,93,83,73,75,71,68,88,69,47,30.01,29.89,7,2,11,0.00
2013-8-30,96,83,77,80,75,72,91,77,51,29.96,29.84,5,1,8,0.00
2013-8-31,93,80,74,80,74,71,94,84,57,29.95,29.85,3,0,6,0.04
2013-9-1,93,81,74,78,74,72,94,81,53,29.97,29.86,3,0,6,0.09
2013-9-2,92,81,74,77,74,71,93,79,57,29.98,29.87,5,1,8,0.01
2013-9-3,92,83,75,77,75,73,93,78,58,29.99,29.88,5,1,9,0.00
2013-9-4,94,82,76,81,76,71,93,81,56,30.07,29.96,4,0,6,0.03
2013-9-5,94,80,75,80,75,72,92,85,60,30.09,29.99,4,1,4,0.26
2013-9-6,90,78,73,78,75,72,94,89,66,30.05,29.97,3,0,7,0.29
2013-9-7,87,76,72,75,72,70,95,87,61,30.02,29.94,4,0,4,0.00
2013-9-8,89,81,72,74,71,66,93,74,49,29.98,29.90,3,1,6,0.00
2013-9-9,91,80,73,75,71,70,91,76,50,30.06,29.95,3,0,3,0.00
2013-9-10,89,82,75,75,72,70,90,74,54,30.14,30.03,4,1,7,0.00
2013-9-11,88,81,74,77,74,71,92,80,64,30.12,30.03,4,1,8,0.00
2013-9-12,89,80,74,77,74,71,93,81,61,30.05,29.89,3,0,9,0.00
2013-9-13,93,82,73,76,72,69,93,74,47,29.91,29.76,4,0,8,0.00
2013-9-14,92,81,75,79,74,71,90,79,52,29.99,29.80,3,0,6,0.09
2013-9-15,93,83,75,78,75,71,93,79,57,30.09,29.97,2,0,4,0.00
2013-9-16,91,82,76,80,76,74,93,82,61,30.09,29.99,2,0,3,0.08
2013-9-17,86,79,75,78,75,72,94,86,71,30.10,29.99,5,1,7,0.39
2013-9-18,82,76,74,74,73,72,95,92,77,30.11,30.02,5,0,6,3.10
2013-9-19,84,77,73,76,73,70,93,88,74,30.09,30.03,2,0,11,0.31
2013-9-20,86,77,71,74,71,69,94,81,62,30.05,29.92,3,0,6,0.00
2013-9-21,88,79,70,76,72,68,95,79,60,29.94,29.73,2,0,5,0.00
2013-9-22,83,76,73,76,72,70,93,87,77,29.84,29.72,8,1,12,0.16
2013-9-23,82,76,72,76,73,70,95,89,81,29.95,29.82,1,0,1,0.01
2013-9-24,82,77,74,76,74,72,95,90,80,29.95,29.81,2,0,4,0.99
2013-9-25,84,78,74,77,74,72,95,89,78,29.81,29.73,7,1,10,0.01
2013-9-26,77,74,70,74,71,67,94,90,83,29.90,29.72,6,2,11,0.01
2013-9-27,80,73,66,72,68,64,92,85,76,30.00,29.88,4,2,10,0.00
2013-9-28,77,74,71,71,68,66,91,84,72,30.07,29.96,5,2,9,0.01
2013-9-29,82,74,67,72,68,64,93,83,69,30.02,29.94,4,2,8,0.00
2013-9-30,81,75,68,70,67,64,92,77,63,30.04,29.93,3,1,8,0.00
2013-10-1,82,74,70,69,66,64,85,75,63,30.10,30.01,3,0,4,0.00
2013-10-2,81,72,65,69,66,62,90,80,65,30.10,30.04,3,1,7,0.00
2013-10-10,83,72,62,67,63,60,94,76,50,30.07,29.96,4,1,9,0.01
2013-10-11,83,72,65,65,63,61,93,75,47,30.04,29.93,5,1,10,0.00
2013-10-12,84,73,64,68,63,60,91,72,45,30.03,29.95,4,0,7,0.00
2013-10-13,86,73,64,70,65,60,92,77,46,30.09,30.00,3,1,7,0.00
2013-10-14,77,71,65,69,66,63,93,85,73,30.07,29.99,5,2,12,0.00
2013-10-15,70,69,67,67,66,65,94,91,88,30.01,29.95,6,2,13,0.09
2013-10-16,82,73,65,72,68,63,92,84,71,29.99,29.91,4,1,6,0.00
2013-10-17,84,75,66,74,70,65,95,85,68,29.98,29.88,1,0,4,0.00
2013-10-18,87,77,69,76,71,67,94,82,64,29.99,29.88,3,0,4,0.00
2013-10-19,86,78,72,76,72,70,93,83,66,29.95,29.84,3,0,4,0.00
2013-10-20,78,72,67,71,65,61,89,79,64,30.00,29.88,4,2,8,0.02
2013-10-21,81,74,69,74,70,66,92,86,78,30.02,29.94,4,1,6,0.00
2013-10-22,79,74,70,75,71,68,95,91,84,29.97,29.80,3,0,6,0.11
2013-10-23,75,68,61,68,57,49,95,73,43,30.03,29.81,9,3,14,0.17
2013-10-24,70,60,52,54,48,42,88,64,48,30.18,30.03,5,2,12,0.00
2013-10-25,72,62,54,54,50,45,87,68,47,30.26,30.16,6,2,10,0.00
2013-10-26,72,60,49,57,52,45,89,75,47,30.25,30.13,4,2,8,0.00
2013-10-27,74,61,50,54,50,44,93,70,37,30.17,30.08,3,0,7,0.00
2013-10-28,77,65,55,63,57,52,92,78,57,30.22,30.10,3,0,4,0.00
2013-10-29,76,68,60,67,62,58,92,82,60,30.28,30.19,4,1,7,0.01
2013-10-30,78,70,62,69,64,60,93,82,69,30.27,30.16,4,1,8,0.00
2013-10-31,84,74,66,72,68,63,94,82,62,30.17,29.98,2,0,7,0.01
2013-11-1,83,76,70,72,69,67,90,81,64,30.00,29.81,4,1,11,0.00
2013-11-2,76,67,60,72,63,55,94,85,60,29.96,29.76,6,1,8,2.10
2013-11-3,70,61,52,56,51,46,86,71,44,30.20,29.95,4,2,9,0.00
2013-11-4,72,63,54,63,57,50,92,81,70,30.27,30.18,6,3,13,0.23
2013-11-5,68,65,61,66,62,59,95,91,84,30.27,30.18,5,2,12,0.08
2013-11-6,76,69,65,71,66,63,95,91,80,30.18,30.07,3,0,11,0.21
2013-11-7,79,70,66,69,66,64,94,86,64,30.07,29.96,4,1,5,0.00
2013-11-8,69,60,51,63,51,45,86,73,63,30.21,30.02,8,3,11,0.00
2013-11-9,75,63,53,63,57,50,91,82,62,30.24,30.16,4,2,7,0.00
2013-11-10,75,65,59,66,61,57,96,87,69,30.23,30.12,3,0,6,0.00
2013-11-11,75,65,57,64,59,52,92,83,64,30.20,30.11,3,1,7,0.00
2013-11-12,74,66,60,64,59,49,93,79,56,30.15,30.02,8,1,11,0.00
2013-11-13,60,50,44,49,40,35,79,70,62,30.43,30.15,8,4,15,0.00
2013-11-14,65,54,41,57,48,36,92,82,73,30.39,30.23,5,3,8,0.00
2013-11-15,66,61,56,63,59,54,94,93,88,30.23,30.06,3,0,3,0.08
2013-11-16,74,67,60,67,63,58,96,89,73,30.18,30.09,3,0,6,0.01
2013-11-17,80,72,67,73,68,65,95,90,79,30.11,29.99,2,0,7,0.14
2013-11-18,78,72,69,73,69,66,95,91,83,30.02,29.89,5,1,11,0.30
2013-11-19,71,63,55,69,55,44,95,76,62,30.05,29.91,5,2,10,0.00
2013-11-20,69,64,60,64,60,56,94,87,81,30.19,30.02,4,2,10,0.03
2013-11-21,74,66,63,67,63,61,94,90,81,30.25,30.16,3,1,4,0.00
2013-11-22,76,68,64,70,65,61,95,89,76,30.25,30.13,1,0,1,0.00
2013-11-23,79,69,60,69,64,59,95,85,64,30.14,30.00,7,1,9,0.00
2013-11-24,64,57,52,59,48,41,85,73,60,30.35,30.07,6,4,13,0.00
2013-11-25,67,58,45,60,52,40,92,82,72,30.33,30.10,7,2,9,0.00
2013-11-26,74,69,61,71,66,59,95,92,87,30.11,29.68,3,0,6,1.09
2013-11-27,71,55,39,69,50,34,94,83,73,30.22,29.61,11,5,19,0.09
2013-11-28,55,43,32,45,37,28,85,78,68,30.42,30.22,5,3,9,0.00
2013-11-29,62,52,42,52,45,37,85,79,66,30.44,30.35,4,2,9,0.00
2013-11-30,61,56,54,56,52,48,92,87,81,30.39,30.24,4,2,9,0.00
2013-12-1,68,59,52,62,54,49,92,86,77,30.24,29.99,3,1,6,0.00
2013-12-2,67,59,54,57,54,51,94,86,66,29.99,29.82,3,0,5,0.00
2013-12-3,70,60,52,63,56,50,95,88,75,29.97,29.88,1,0,1,0.00
2013-12-4,74,65,58,67,62,56,95,89,77,30.10,29.94,0,0,0,0.00
2013-12-5,80,68,60,70,64,58,96,86,67,30.16,30.06,1,0,5,0.01
2013-12-6,82,72,63,71,66,61,95,83,63,30.15,30.08,2,0,10,0.00
2013-12-7,82,72,66,71,67,63,95,85,64,30.22,30.12,3,0,7,0.00
2013-12-8,68,65,63,65,63,61,95,92,88,30.25,30.13,3,1,6,0.00
2013-12-9,82,70,63,70,66,61,96,86,65,30.17,30.05,2,0,8,0.00
2013-12-10,79,68,54,70,64,45,93,85,69,30.25,30.01,5,1,14,0.30
2013-12-11,65,57,48,59,51,43,86,81,71,30.30,30.22,4,2,7,0.00
2013-12-12,63,56,49,51,41,27,82,60,25,30.37,30.24,6,2,10,0.00
2013-12-13,65,54,44,56,48,41,92,82,72,30.34,30.13,5,1,9,0.00
2013-12-14,75,66,55,69,63,53,95,90,80,30.13,29.86,3,0,12,0.67
2013-12-15,67,59,48,65,56,43,95,88,79,30.17,29.84,8,2,11,0.33
2013-12-16,57,47,38,44,41,34,92,79,57,30.26,30.15,4,1,6,0.00
2013-12-17,65,52,42,49,42,38,93,71,40,30.28,30.16,3,1,8,0.00
2013-12-18,62,53,43,43,38,27,89,60,29,30.30,30.19,7,2,9,0.00
2013-12-19,69,54,41,59,49,39,92,84,65,30.31,30.20,2,0,4,0.00
2013-12-20,75,61,50,63,56,48,96,86,66,30.23,30.13,3,0,6,0.01
2013-12-21,81,69,60,69,64,58,95,84,60,30.14,30.02,4,1,11,0.00
2013-12-22,82,74,69,71,69,66,94,85,69,30.14,30.05,3,1,14,0.00
2013-12-23,82,74,61,71,68,58,93,84,69,30.14,30.04,7,1,9,0.01
2013-12-24,61,54,46,58,43,34,91,68,41,30.31,30.11,8,4,15,0.00
2013-12-25,60,49,39,53,44,33,88,82,63,30.31,30.23,6,3,9,0.00
2013-12-26,56,52,49,50,48,44,92,85,80,30.28,30.18,5,2,8,0.00
2013-12-27,59,54,51,54,50,47,92,86,79,30.32,30.21,4,2,11,0.02
2013-12-28,67,62,58,65,59,51,94,88,79,30.28,29.97,2,1,6,0.02
2013-12-29,72,68,59,69,65,55,95,89,81,30.01,29.87,5,1,10,1.56
2013-12-30,65,56,48,55,49,46,92,78,57,30.20,30.00,7,2,10,0.00
2013-12-31,61,57,54,52,50,48,88,77,65,30.33,30.18,5,1,6,0.00
2014-1-1,59,56,52,58,53,48,95,90,83,30.31,30.08,3,1,5,0.68
2014-1-2,64,60,52,63,58,46,96,94,77,30.08,29.75,13,1,20,1.26